Year,Month,Day,Hour,Minute,Value (Times are PST for temperature in C)
2016,09,30,00,00,8.10
2016,09,30,00,01,8.10
2016,09,30,00,02,8.10
2016,09,30,00,03,8.10
2016,09,30,00,04,8.10
2016,09,30,00,05,8.10
2016,09,30,00,06,8.10
2016,09,30,00,07,8.10
2016,09,30,00,08,8.10
2016,09,30,00,09,8.00
2016,09,30,00,10,8.00
2016,09,30,00,11,7.90
2016,09,30,00,12,7.90
2016,09,30,00,13,7.90
2016,09,30,00,14,7.90
2016,09,30,00,15,8.00
2016,09,30,00,16,8.00
2016,09,30,00,17,8.00
2016,09,30,00,18,8.00
2016,09,30,00,19,8.00
2016,09,30,00,20,8.00
2016,09,30,00,21,8.00
2016,09,30,00,22,8.00
2016,09,30,00,23,8.00
2016,09,30,00,24,8.00
2016,09,30,00,25,8.00
2016,09,30,00,26,8.00
2016,09,30,00,27,8.00
2016,09,30,00,28,8.00
2016,09,30,00,29,8.00
2016,09,30,00,30,8.00
2016,09,30,00,31,7.90
2016,09,30,00,32,7.90
2016,09,30,00,33,7.90
2016,09,30,00,34,7.90
2016,09,30,00,35,7.90
2016,09,30,00,36,7.90
2016,09,30,00,37,7.90
2016,09,30,00,38,7.90
2016,09,30,00,39,7.90
2016,09,30,00,40,7.90
2016,09,30,00,41,7.90
2016,09,30,00,42,7.90
2016,09,30,00,43,8.00
2016,09,30,00,44,8.00
2016,09,30,00,45,7.90
2016,09,30,00,46,7.90
2016,09,30,00,47,7.90
2016,09,30,00,48,7.90
2016,09,30,00,49,7.90
2016,09,30,00,50,7.90
2016,09,30,00,51,7.90
2016,09,30,00,52,7.90
2016,09,30,00,53,7.80
2016,09,30,00,54,7.80
2016,09,30,00,55,7.80
2016,09,30,00,56,7.80
2016,09,30,00,57,7.80
2016,09,30,00,58,7.80
2016,09,30,00,59,7.80
2016,09,30,01,00,7.70
2016,09,30,01,01,7.70
2016,09,30,01,02,7.70
2016,09,30,01,03,7.70
2016,09,30,01,04,7.70
2016,09,30,01,05,7.70
2016,09,30,01,06,7.70
2016,09,30,01,07,7.70
2016,09,30,01,08,7.70
2016,09,30,01,09,7.60
2016,09,30,01,10,7.60
2016,09,30,01,11,7.60
2016,09,30,01,12,7.60
2016,09,30,01,13,7.60
2016,09,30,01,14,7.60
2016,09,30,01,15,7.60
2016,09,30,01,16,7.60
2016,09,30,01,17,7.60
2016,09,30,01,18,7.60
2016,09,30,01,19,7.60
2016,09,30,01,20,7.60
2016,09,30,01,21,7.60
2016,09,30,01,22,7.60
2016,09,30,01,23,7.70
2016,09,30,01,24,7.70
2016,09,30,01,25,7.70
2016,09,30,01,26,7.70
2016,09,30,01,27,7.70
2016,09,30,01,28,7.70
2016,09,30,01,29,7.70
2016,09,30,01,30,7.70
2016,09,30,01,31,7.70
2016,09,30,01,32,7.70
2016,09,30,01,33,7.70
2016,09,30,01,34,7.70
2016,09,30,01,35,7.70
2016,09,30,01,36,7.70
2016,09,30,01,37,7.70
2016,09,30,01,38,7.70
2016,09,30,01,39,7.70
2016,09,30,01,40,7.70
2016,09,30,01,41,7.70
2016,09,30,01,42,7.70
2016,09,30,01,43,7.70
2016,09,30,01,44,7.70
2016,09,30,01,45,7.70
2016,09,30,01,46,7.70
2016,09,30,01,47,7.70
2016,09,30,01,48,7.70
2016,09,30,01,49,7.70
2016,09,30,01,50,7.70
2016,09,30,01,51,7.70
2016,09,30,01,52,7.70
2016,09,30,01,53,7.70
2016,09,30,01,54,7.70
2016,09,30,01,55,7.70
2016,09,30,01,56,7.70
2016,09,30,01,57,7.60
2016,09,30,01,58,7.60
2016,09,30,01,59,7.60
2016,09,30,02,00,7.60
2016,09,30,02,01,7.60
2016,09,30,02,02,7.50
2016,09,30,02,03,7.50
2016,09,30,02,04,7.50
2016,09,30,02,05,7.50
2016,09,30,02,06,7.50
2016,09,30,02,07,7.50
2016,09,30,02,08,7.50
2016,09,30,02,09,7.50
2016,09,30,02,10,7.40
2016,09,30,02,11,7.40
2016,09,30,02,12,7.40
2016,09,30,02,13,7.40
2016,09,30,02,14,7.40
2016,09,30,02,15,7.30
2016,09,30,02,16,7.30
2016,09,30,02,17,7.40
2016,09,30,02,18,7.40
2016,09,30,02,19,7.40
2016,09,30,02,20,7.40
2016,09,30,02,21,7.40
2016,09,30,02,22,7.30
2016,09,30,02,23,7.30
2016,09,30,02,24,7.30
2016,09,30,02,25,7.30
2016,09,30,02,26,7.30
2016,09,30,02,27,7.30
2016,09,30,02,28,7.30
2016,09,30,02,29,7.30
2016,09,30,02,30,7.40
2016,09,30,02,31,7.30
2016,09,30,02,32,7.30
2016,09,30,02,33,7.30
2016,09,30,02,34,7.30
2016,09,30,02,35,7.30
2016,09,30,02,36,7.30
2016,09,30,02,37,7.30
2016,09,30,02,38,7.30
2016,09,30,02,39,7.20
2016,09,30,02,40,7.10
2016,09,30,02,41,7.10
2016,09,30,02,42,7.10
2016,09,30,02,43,7.10
2016,09,30,02,44,7.10
2016,09,30,02,45,7.10
2016,09,30,02,46,7.10
2016,09,30,02,47,7.10
2016,09,30,02,48,7.10
2016,09,30,02,49,7.10
2016,09,30,02,50,7.10
2016,09,30,02,51,7.10
2016,09,30,02,52,7.20
2016,09,30,02,53,7.20
2016,09,30,02,54,7.20
2016,09,30,02,55,7.20
2016,09,30,02,56,7.20
2016,09,30,02,57,7.20
2016,09,30,02,58,7.20
2016,09,30,02,59,7.20
2016,09,30,03,00,7.10
2016,09,30,03,01,7.10
2016,09,30,03,02,7.10
2016,09,30,03,03,7.10
2016,09,30,03,04,7.10
2016,09,30,03,05,7.10
2016,09,30,03,06,7.10
2016,09,30,03,07,7.10
2016,09,30,03,08,7.10
2016,09,30,03,09,7.10
2016,09,30,03,10,7.10
2016,09,30,03,11,7.10
2016,09,30,03,12,7.10
2016,09,30,03,13,7.10
2016,09,30,03,14,7.10
2016,09,30,03,15,7.20
2016,09,30,03,16,7.20
2016,09,30,03,17,7.20
2016,09,30,03,18,7.30
2016,09,30,03,19,7.30
2016,09,30,03,20,7.30
2016,09,30,03,21,7.30
2016,09,30,03,22,7.30
2016,09,30,03,23,7.20
2016,09,30,03,24,7.20
2016,09,30,03,25,7.20
2016,09,30,03,26,7.20
2016,09,30,03,27,7.20
2016,09,30,03,28,7.20
2016,09,30,03,29,7.20
2016,09,30,03,30,7.20
2016,09,30,03,31,7.20
2016,09,30,03,32,7.20
2016,09,30,03,33,7.20
2016,09,30,03,34,7.10
2016,09,30,03,35,7.10
2016,09,30,03,36,7.10
2016,09,30,03,37,7.10
2016,09,30,03,38,7.10
2016,09,30,03,39,7.10
2016,09,30,03,40,7.10
2016,09,30,03,41,7.10
2016,09,30,03,42,7.10
2016,09,30,03,43,7.10
2016,09,30,03,44,7.10
2016,09,30,03,45,7.10
2016,09,30,03,46,7.10
2016,09,30,03,47,7.10
2016,09,30,03,48,7.10
2016,09,30,03,49,7.10
2016,09,30,03,50,7.10
2016,09,30,03,51,7.20
2016,09,30,03,52,7.20
2016,09,30,03,53,7.20
2016,09,30,03,54,7.20
2016,09,30,03,55,7.20
2016,09,30,03,56,7.10
2016,09,30,03,57,7.10
2016,09,30,03,58,7.10
2016,09,30,03,59,7.10
2016,09,30,04,00,7.10
2016,09,30,04,01,7.10
2016,09,30,04,02,7.10
2016,09,30,04,03,7.00
2016,09,30,04,04,7.00
2016,09,30,04,08,7.00
2016,09,30,04,09,6.90
2016,09,30,04,10,6.90
2016,09,30,04,11,6.90
2016,09,30,04,12,6.90
2016,09,30,04,13,6.90
2016,09,30,04,14,6.80
2016,09,30,04,15,6.80
2016,09,30,04,16,6.80
2016,09,30,04,17,6.80
2016,09,30,04,18,6.90
2016,09,30,04,19,6.90
2016,09,30,04,20,6.90
2016,09,30,04,21,6.90
2016,09,30,04,22,6.90
2016,09,30,04,23,6.90
2016,09,30,04,24,6.90
2016,09,30,04,25,7.00
2016,09,30,04,26,7.00
2016,09,30,04,27,7.00
2016,09,30,04,28,7.10
2016,09,30,04,29,7.10
2016,09,30,04,30,7.10
2016,09,30,04,31,7.20
2016,09,30,04,32,7.20
2016,09,30,04,33,7.20
2016,09,30,04,34,7.20
2016,09,30,04,35,7.20
2016,09,30,04,36,7.20
2016,09,30,04,37,7.20
2016,09,30,04,38,7.20
2016,09,30,04,39,7.10
2016,09,30,04,40,7.10
2016,09,30,04,41,7.10
2016,09,30,04,42,7.10
2016,09,30,04,43,7.10
2016,09,30,04,44,7.10
2016,09,30,04,45,7.10
2016,09,30,04,46,7.10
2016,09,30,04,47,7.10
2016,09,30,04,48,7.10
2016,09,30,04,49,7.20
2016,09,30,04,50,7.20
2016,09,30,04,51,7.20
2016,09,30,04,52,7.20
2016,09,30,04,53,7.20
2016,09,30,04,54,7.20
2016,09,30,04,55,7.20
2016,09,30,04,56,7.20
2016,09,30,04,57,7.30
2016,09,30,04,58,7.30
2016,09,30,04,59,7.30
2016,09,30,05,00,7.30
2016,09,30,05,01,7.30
2016,09,30,05,02,7.30
2016,09,30,05,03,7.30
2016,09,30,05,04,7.30
2016,09,30,05,05,7.30
2016,09,30,05,06,7.30
2016,09,30,05,07,7.30
2016,09,30,05,08,7.30
2016,09,30,05,09,7.30
2016,09,30,05,10,7.30
2016,09,30,05,11,7.30
2016,09,30,05,12,7.30
2016,09,30,05,13,7.30
2016,09,30,05,14,7.30
2016,09,30,05,15,7.30
2016,09,30,05,16,7.30
2016,09,30,05,17,7.30
2016,09,30,05,18,7.30
2016,09,30,05,19,7.20
2016,09,30,05,20,7.20
2016,09,30,05,21,7.20
2016,09,30,05,22,7.20
2016,09,30,05,23,7.20
2016,09,30,05,24,7.20
2016,09,30,05,25,7.20
2016,09,30,05,26,7.30
2016,09,30,05,27,7.30
2016,09,30,05,28,7.30
2016,09,30,05,29,7.30
2016,09,30,05,30,7.30
2016,09,30,05,31,7.30
2016,09,30,05,32,7.30
2016,09,30,05,33,7.30
2016,09,30,05,34,7.30
2016,09,30,05,35,7.30
2016,09,30,05,36,7.30
2016,09,30,05,37,7.30
2016,09,30,05,38,7.30
2016,09,30,05,39,7.30
2016,09,30,05,40,7.30
2016,09,30,05,41,7.30
2016,09,30,05,42,7.20
2016,09,30,05,43,7.20
2016,09,30,05,44,7.30
2016,09,30,05,45,7.30
2016,09,30,05,46,7.30
2016,09,30,05,47,7.30
2016,09,30,05,48,7.30
2016,09,30,05,49,7.30
2016,09,30,05,50,7.30
2016,09,30,05,51,7.30
2016,09,30,05,52,7.30
2016,09,30,05,53,7.30
2016,09,30,05,54,7.30
2016,09,30,05,55,7.30
2016,09,30,05,56,7.30
2016,09,30,05,57,7.30
2016,09,30,05,58,7.20
2016,09,30,05,59,7.20
2016,09,30,06,00,7.20
2016,09,30,06,01,7.20
2016,09,30,06,02,7.20
2016,09,30,06,03,7.20
2016,09,30,06,04,7.10
2016,09,30,06,05,7.10
2016,09,30,06,06,7.10
2016,09,30,06,07,7.10
2016,09,30,06,08,7.10
2016,09,30,06,09,7.00
2016,09,30,06,10,7.00
2016,09,30,06,11,6.90
2016,09,30,06,12,6.90
2016,09,30,06,13,6.90
2016,09,30,06,14,6.90
2016,09,30,06,15,6.90
2016,09,30,06,16,6.90
2016,09,30,06,17,6.90
2016,09,30,06,18,6.90
2016,09,30,06,19,6.80
2016,09,30,06,20,6.80
2016,09,30,06,21,6.80
2016,09,30,06,22,6.80
2016,09,30,06,23,6.80
2016,09,30,06,24,6.80
2016,09,30,06,25,6.70
2016,09,30,06,26,6.70
2016,09,30,06,27,6.70
2016,09,30,06,28,6.70
2016,09,30,06,29,6.70
2016,09,30,06,30,6.70
2016,09,30,06,31,6.70
2016,09,30,06,32,6.70
2016,09,30,06,33,6.70
2016,09,30,06,34,6.70
2016,09,30,06,35,6.80
2016,09,30,06,36,6.80
2016,09,30,06,37,6.80
2016,09,30,06,38,6.80
2016,09,30,06,39,6.80
2016,09,30,06,40,6.90
2016,09,30,06,41,6.90
2016,09,30,06,42,6.90
2016,09,30,06,43,6.90
2016,09,30,06,44,6.90
2016,09,30,06,45,6.90
2016,09,30,06,46,6.90
2016,09,30,06,47,6.90
2016,09,30,06,48,6.80
2016,09,30,06,49,6.80
2016,09,30,06,50,6.80
2016,09,30,06,51,6.80
2016,09,30,06,52,6.80
2016,09,30,06,53,6.80
2016,09,30,06,54,6.80
2016,09,30,06,55,6.80
2016,09,30,06,56,6.70
2016,09,30,06,57,6.70
2016,09,30,06,58,6.70
2016,09,30,06,59,6.70
2016,09,30,07,00,6.70
2016,09,30,07,01,6.70
2016,09,30,07,02,6.70
2016,09,30,07,03,6.70
2016,09,30,07,04,6.70
2016,09,30,07,05,6.70
2016,09,30,07,06,6.70
2016,09,30,07,07,6.70
2016,09,30,07,08,6.70
2016,09,30,07,09,6.70
2016,09,30,07,10,6.70
2016,09,30,07,11,6.70
2016,09,30,07,12,6.70
2016,09,30,07,13,6.70
2016,09,30,07,14,6.70
2016,09,30,07,15,6.70
2016,09,30,07,16,6.70
2016,09,30,07,17,6.70
2016,09,30,07,18,6.70
2016,09,30,07,19,6.70
2016,09,30,07,20,6.80
2016,09,30,07,21,6.80
2016,09,30,07,22,6.80
2016,09,30,07,23,6.80
2016,09,30,07,24,6.80
2016,09,30,07,25,6.90
2016,09,30,07,26,6.90
2016,09,30,07,27,6.90
2016,09,30,07,28,6.90
2016,09,30,07,29,6.90
2016,09,30,07,30,6.90
2016,09,30,07,31,6.90
2016,09,30,07,32,6.90
2016,09,30,07,33,6.90
2016,09,30,07,34,6.90
2016,09,30,07,35,6.90
2016,09,30,07,36,6.90
2016,09,30,07,37,6.90
2016,09,30,07,38,7.00
2016,09,30,07,39,7.00
2016,09,30,07,40,7.00
2016,09,30,07,41,7.00
2016,09,30,07,42,7.00
2016,09,30,07,43,7.00
2016,09,30,07,44,7.00
2016,09,30,07,45,7.00
2016,09,30,07,46,7.00
2016,09,30,07,47,7.00
2016,09,30,07,48,7.10
2016,09,30,07,49,7.00
2016,09,30,07,50,7.00
2016,09,30,07,51,7.00
2016,09,30,07,52,7.00
2016,09,30,07,53,7.00
2016,09,30,07,54,7.00
2016,09,30,07,55,7.00
2016,09,30,07,56,7.00
2016,09,30,07,57,7.00
2016,09,30,07,58,7.10
2016,09,30,07,59,7.10
2016,09,30,08,00,7.10
2016,09,30,08,01,7.10
2016,09,30,08,02,7.10
2016,09,30,08,03,7.10
2016,09,30,08,04,7.20
2016,09,30,08,05,7.20
2016,09,30,08,06,7.20
2016,09,30,08,07,7.20
2016,09,30,08,08,7.30
2016,09,30,08,09,7.30
2016,09,30,08,10,7.30
2016,09,30,08,11,7.40
2016,09,30,08,12,7.40
2016,09,30,08,13,7.40
2016,09,30,08,14,7.40
2016,09,30,08,15,7.40
2016,09,30,08,16,7.50
2016,09,30,08,17,7.50
2016,09,30,08,18,7.60
2016,09,30,08,19,7.60
2016,09,30,08,20,7.70
2016,09,30,08,21,7.70
2016,09,30,08,22,7.70
2016,09,30,08,23,7.80
2016,09,30,08,24,7.80
2016,09,30,08,25,7.90
2016,09,30,08,26,7.90
2016,09,30,08,27,8.00
2016,09,30,08,28,8.00
2016,09,30,08,29,8.10
2016,09,30,08,30,8.20
2016,09,30,08,31,8.30
2016,09,30,08,32,8.40
2016,09,30,08,33,8.40
2016,09,30,08,34,8.50
2016,09,30,08,35,8.60
2016,09,30,08,36,8.70
2016,09,30,08,37,8.80
2016,09,30,08,38,8.90
2016,09,30,08,39,8.90
2016,09,30,08,40,9.00
2016,09,30,08,41,9.00
2016,09,30,08,42,9.10
2016,09,30,08,43,9.10
2016,09,30,08,44,9.10
2016,09,30,08,45,9.20
2016,09,30,08,46,9.20
2016,09,30,08,47,9.30
2016,09,30,08,48,9.30
2016,09,30,08,49,9.40
2016,09,30,08,50,9.50
2016,09,30,08,51,9.60
2016,09,30,08,52,9.70
2016,09,30,08,53,9.70
2016,09,30,08,54,9.80
2016,09,30,08,55,9.80
2016,09,30,08,56,9.90
2016,09,30,08,57,9.90
2016,09,30,08,58,10.00
2016,09,30,08,59,10.00
2016,09,30,09,00,10.10
2016,09,30,09,01,10.10
2016,09,30,09,02,10.20
2016,09,30,09,03,10.20
2016,09,30,09,04,10.20
2016,09,30,09,05,10.30
2016,09,30,09,06,10.40
2016,09,30,09,07,10.40
2016,09,30,09,08,10.50
2016,09,30,09,09,10.50
2016,09,30,09,10,10.60
2016,09,30,09,11,10.70
2016,09,30,09,12,10.70
2016,09,30,09,13,10.70
2016,09,30,09,14,10.80
2016,09,30,09,15,10.80
2016,09,30,09,16,10.90
2016,09,30,09,17,10.90
2016,09,30,09,18,11.00
2016,09,30,09,19,11.10
2016,09,30,09,20,11.20
2016,09,30,09,21,11.20
2016,09,30,09,22,11.30
2016,09,30,09,23,11.40
2016,09,30,09,24,11.50
2016,09,30,09,25,11.50
2016,09,30,09,26,11.50
2016,09,30,09,27,11.60
2016,09,30,09,28,11.60
2016,09,30,09,29,11.60
2016,09,30,09,30,11.60
2016,09,30,09,31,11.60
2016,09,30,09,32,11.60
2016,09,30,09,33,11.50
2016,09,30,09,34,11.40
2016,09,30,09,35,11.40
2016,09,30,09,36,11.40
2016,09,30,09,37,11.30
2016,09,30,09,38,11.30
2016,09,30,09,39,11.30
2016,09,30,09,40,11.30
2016,09,30,09,41,11.30
2016,09,30,09,42,11.20
2016,09,30,09,43,11.20
2016,09,30,09,44,11.20
2016,09,30,09,45,11.20
2016,09,30,09,46,11.20
2016,09,30,09,47,11.20
2016,09,30,09,48,11.20
2016,09,30,09,49,11.30
2016,09,30,09,50,11.30
2016,09,30,09,51,11.30
2016,09,30,09,52,11.30
2016,09,30,09,53,11.20
2016,09,30,09,54,11.20
2016,09,30,09,55,11.30
2016,09,30,09,56,11.30
2016,09,30,09,57,11.30
2016,09,30,09,58,11.40
2016,09,30,09,59,11.40
2016,09,30,10,00,11.40
2016,09,30,10,01,11.50
2016,09,30,10,02,11.60
2016,09,30,10,03,11.60
2016,09,30,10,04,11.70
2016,09,30,10,05,11.70
2016,09,30,10,06,11.80
2016,09,30,10,07,11.80
2016,09,30,10,08,11.80
2016,09,30,10,09,11.90
2016,09,30,10,10,11.90
2016,09,30,10,11,11.90
2016,09,30,10,12,11.90
2016,09,30,10,13,11.90
2016,09,30,10,14,11.90
2016,09,30,10,15,11.90
2016,09,30,10,16,11.90
2016,09,30,10,17,11.90
2016,09,30,10,18,11.90
2016,09,30,10,19,11.90
2016,09,30,10,20,12.00
2016,09,30,10,21,12.00
2016,09,30,10,22,12.00
2016,09,30,10,23,12.00
2016,09,30,10,24,12.00
2016,09,30,10,25,12.10
2016,09,30,10,26,12.10
2016,09,30,10,27,12.10
2016,09,30,10,28,12.10
2016,09,30,10,29,12.10
2016,09,30,10,30,12.10
2016,09,30,10,31,12.10
2016,09,30,10,32,12.10
2016,09,30,10,33,12.10
2016,09,30,10,34,12.00
2016,09,30,10,35,11.90
2016,09,30,10,36,11.90
2016,09,30,10,37,11.90
2016,09,30,10,38,11.90
2016,09,30,10,39,11.80
2016,09,30,10,40,11.80
2016,09,30,10,41,11.80
2016,09,30,10,42,11.70
2016,09,30,10,43,11.70
2016,09,30,10,44,11.60
2016,09,30,10,45,11.60
2016,09,30,10,46,11.60
2016,09,30,10,47,11.60
2016,09,30,10,48,11.60
2016,09,30,10,49,11.60
2016,09,30,10,50,11.60
2016,09,30,10,51,11.60
2016,09,30,10,52,11.60
2016,09,30,10,53,11.60
2016,09,30,10,54,11.70
2016,09,30,10,55,11.70
2016,09,30,10,56,11.70
2016,09,30,10,57,11.70
2016,09,30,10,58,11.70
2016,09,30,10,59,11.60
2016,09,30,11,00,11.50
2016,09,30,11,01,11.50
2016,09,30,11,02,11.40
2016,09,30,11,03,11.40
2016,09,30,11,04,11.30
2016,09,30,11,05,11.30
2016,09,30,11,06,11.40
2016,09,30,11,07,11.40
2016,09,30,11,08,11.40
2016,09,30,11,09,11.30
2016,09,30,11,10,11.30
2016,09,30,11,11,11.20
2016,09,30,11,12,11.20
2016,09,30,11,13,11.20
2016,09,30,11,14,11.20
2016,09,30,11,15,11.20
2016,09,30,11,16,11.20
2016,09,30,11,17,11.20
2016,09,30,11,18,11.20
2016,09,30,11,19,11.30
2016,09,30,11,20,11.30
2016,09,30,11,21,11.30
2016,09,30,11,22,11.40
2016,09,30,11,23,11.30
2016,09,30,11,24,11.30
2016,09,30,11,25,11.30
2016,09,30,11,26,11.40
2016,09,30,11,27,11.40
2016,09,30,11,28,11.50
2016,09,30,11,29,11.50
2016,09,30,11,30,11.60
2016,09,30,11,31,11.60
2016,09,30,11,32,11.50
2016,09,30,11,33,11.50
2016,09,30,11,34,11.40
2016,09,30,11,35,11.40
2016,09,30,11,36,11.30
2016,09,30,11,37,11.30
2016,09,30,11,38,11.30
2016,09,30,11,39,11.30
2016,09,30,11,40,11.30
2016,09,30,11,41,11.30
2016,09,30,11,42,11.30
2016,09,30,11,43,11.40
2016,09,30,11,44,11.40
2016,09,30,11,45,11.50
2016,09,30,11,46,11.60
2016,09,30,11,47,11.60
2016,09,30,11,48,11.70
2016,09,30,11,49,11.70
2016,09,30,11,50,11.80
2016,09,30,11,51,11.90
2016,09,30,11,52,11.80
2016,09,30,11,53,11.80
2016,09,30,11,54,11.80
2016,09,30,11,55,11.80
2016,09,30,11,56,11.80
2016,09,30,11,57,11.80
2016,09,30,11,58,11.80
2016,09,30,11,59,11.90
2016,09,30,12,00,11.90
2016,09,30,12,01,12.00
2016,09,30,12,02,12.10
2016,09,30,12,03,12.20
2016,09,30,12,04,12.20
2016,09,30,12,05,12.20
2016,09,30,12,06,12.20
2016,09,30,12,07,12.20
2016,09,30,12,08,12.20
2016,09,30,12,09,12.20
2016,09,30,12,10,12.20
2016,09,30,12,11,12.20
2016,09,30,12,12,12.30
2016,09,30,12,13,12.30
2016,09,30,12,14,12.40
2016,09,30,12,15,12.50
2016,09,30,12,16,12.50
2016,09,30,12,17,12.60
2016,09,30,12,18,12.70
2016,09,30,12,19,12.70
2016,09,30,12,20,12.80
2016,09,30,12,21,12.80
2016,09,30,12,22,12.70
2016,09,30,12,23,12.70
2016,09,30,12,24,12.60
2016,09,30,12,25,12.60
2016,09,30,12,26,12.50
2016,09,30,12,27,12.50
2016,09,30,12,28,12.50
2016,09,30,12,29,12.50
2016,09,30,12,30,12.50
2016,09,30,12,31,12.50
2016,09,30,12,32,12.50
2016,09,30,12,33,12.60
2016,09,30,12,34,12.60
2016,09,30,12,35,12.60
2016,09,30,12,36,12.50
2016,09,30,12,37,12.50
2016,09,30,12,38,12.40
2016,09,30,12,39,12.40
2016,09,30,12,40,12.40
2016,09,30,12,41,12.30
2016,09,30,12,42,12.30
2016,09,30,12,43,12.30
2016,09,30,12,44,12.30
2016,09,30,12,45,12.40
2016,09,30,12,46,12.50
2016,09,30,12,47,12.60
2016,09,30,12,48,12.80
2016,09,30,12,49,12.90
2016,09,30,12,50,13.00
2016,09,30,12,51,13.00
2016,09,30,12,52,13.10
2016,09,30,12,53,13.10
2016,09,30,12,54,13.00
2016,09,30,12,55,13.00
2016,09,30,12,56,12.90
2016,09,30,12,57,12.80
2016,09,30,12,58,12.80
2016,09,30,12,59,12.80
2016,09,30,13,00,12.80
2016,09,30,13,01,12.90
2016,09,30,13,02,13.00
2016,09,30,13,03,13.00
2016,09,30,13,04,13.10
2016,09,30,13,05,13.10
2016,09,30,13,06,13.00
2016,09,30,13,07,12.90
2016,09,30,13,08,12.80
2016,09,30,13,09,12.70
2016,09,30,13,10,12.70
2016,09,30,13,11,12.70
2016,09,30,13,12,12.70
2016,09,30,13,13,12.70
2016,09,30,13,14,12.80
2016,09,30,13,15,12.80
2016,09,30,13,16,12.90
2016,09,30,13,17,12.90
2016,09,30,13,18,12.90
2016,09,30,13,19,13.00
2016,09,30,13,20,13.00
2016,09,30,13,21,13.10
2016,09,30,13,22,13.10
2016,09,30,13,23,13.20
2016,09,30,13,24,13.30
2016,09,30,13,25,13.30
2016,09,30,13,26,13.40
2016,09,30,13,27,13.40
2016,09,30,13,28,13.40
2016,09,30,13,29,13.40
2016,09,30,13,30,13.30
2016,09,30,13,31,13.30
2016,09,30,13,32,13.30
2016,09,30,13,33,13.30
2016,09,30,13,34,13.30
2016,09,30,13,35,13.30
2016,09,30,13,36,13.30
2016,09,30,13,37,13.20
2016,09,30,13,38,13.20
2016,09,30,13,39,13.20
2016,09,30,13,40,13.10
2016,09,30,13,41,13.10
2016,09,30,13,42,13.10
2016,09,30,13,43,13.10
2016,09,30,13,44,13.10
2016,09,30,13,45,13.10
2016,09,30,13,46,13.10
2016,09,30,13,47,13.10
2016,09,30,13,48,13.10
2016,09,30,13,49,13.10
2016,09,30,13,50,13.20
2016,09,30,13,51,13.20
2016,09,30,13,52,13.30
2016,09,30,13,53,13.30
2016,09,30,13,54,13.30
2016,09,30,13,55,13.30
2016,09,30,13,56,13.30
2016,09,30,13,57,13.40
2016,09,30,13,58,13.40
2016,09,30,13,59,13.40
2016,09,30,14,00,13.50
2016,09,30,14,01,13.50
2016,09,30,14,02,13.50
2016,09,30,14,03,13.50
2016,09,30,14,04,13.60
2016,09,30,14,05,13.60
2016,09,30,14,06,13.60
2016,09,30,14,07,13.50
2016,09,30,14,08,13.50
2016,09,30,14,09,13.50
2016,09,30,14,10,13.40
2016,09,30,14,11,13.40
2016,09,30,14,12,13.40
2016,09,30,14,13,13.40
2016,09,30,14,14,13.40
2016,09,30,14,15,13.50
2016,09,30,14,16,13.50
2016,09,30,14,17,13.60
2016,09,30,14,18,13.70
2016,09,30,14,19,13.80
2016,09,30,14,20,13.90
2016,09,30,14,21,13.90
2016,09,30,14,22,14.00
2016,09,30,14,23,14.10
2016,09,30,14,24,14.10
2016,09,30,14,25,14.20
2016,09,30,14,26,14.20
2016,09,30,14,27,14.30
2016,09,30,14,28,14.30
2016,09,30,14,29,14.40
2016,09,30,14,30,14.50
2016,09,30,14,31,14.60
2016,09,30,14,32,14.70
2016,09,30,14,33,14.80
2016,09,30,14,34,14.90
2016,09,30,14,35,15.00
2016,09,30,14,36,15.10
2016,09,30,14,37,15.20
2016,09,30,14,38,15.20
2016,09,30,14,39,15.40
2016,09,30,14,40,15.50
2016,09,30,14,41,15.60
2016,09,30,14,42,15.60
2016,09,30,14,43,15.70
2016,09,30,14,44,15.80
2016,09,30,14,45,15.80
2016,09,30,14,46,15.90
2016,09,30,14,47,16.00
2016,09,30,14,48,16.10
2016,09,30,14,49,16.20
2016,09,30,14,50,16.20
2016,09,30,14,51,16.30
2016,09,30,14,52,16.30
2016,09,30,14,53,16.20
2016,09,30,14,54,16.10
2016,09,30,14,55,15.90
2016,09,30,14,56,15.80
2016,09,30,14,57,15.60
2016,09,30,14,58,15.50
2016,09,30,14,59,15.50
2016,09,30,15,00,15.40
2016,09,30,15,01,15.30
2016,09,30,15,02,15.30
2016,09,30,15,03,15.20
2016,09,30,15,04,15.20
2016,09,30,15,05,15.20
2016,09,30,15,06,15.20
2016,09,30,15,07,15.20
2016,09,30,15,08,15.30
2016,09,30,15,09,15.30
2016,09,30,15,10,15.30
2016,09,30,15,11,15.30
2016,09,30,15,12,15.30
2016,09,30,15,13,15.30
2016,09,30,15,14,15.40
2016,09,30,15,15,15.40
2016,09,30,15,16,15.40
2016,09,30,15,17,15.40
2016,09,30,15,18,15.50
2016,09,30,15,19,15.50
2016,09,30,15,20,15.50
2016,09,30,15,21,15.50
2016,09,30,15,22,15.50
2016,09,30,15,23,15.60
2016,09,30,15,24,15.60
2016,09,30,15,25,15.70
2016,09,30,15,26,15.70
2016,09,30,15,27,15.60
2016,09,30,15,28,15.60
2016,09,30,15,29,15.60
2016,09,30,15,30,15.50
2016,09,30,15,31,15.50
2016,09,30,15,32,15.40
2016,09,30,15,33,15.40
2016,09,30,15,34,15.40
2016,09,30,15,35,15.30
2016,09,30,15,36,15.30
2016,09,30,15,37,15.30
2016,09,30,15,38,15.30
2016,09,30,15,39,15.30
2016,09,30,15,40,15.30
2016,09,30,15,41,15.40
2016,09,30,15,42,15.50
2016,09,30,15,43,15.60
2016,09,30,15,44,15.70
2016,09,30,15,45,15.80
2016,09,30,15,46,15.80
2016,09,30,15,47,15.90
2016,09,30,15,48,15.90
2016,09,30,15,49,15.90
2016,09,30,15,50,16.00
2016,09,30,15,51,16.00
2016,09,30,15,52,16.00
2016,09,30,15,53,16.00
2016,09,30,15,54,16.10
2016,09,30,15,55,16.20
2016,09,30,15,56,16.20
2016,09,30,15,57,16.30
2016,09,30,15,58,16.30
2016,09,30,15,59,16.40
2016,09,30,16,00,16.40
2016,09,30,16,01,16.40
2016,09,30,16,02,16.40
2016,09,30,16,03,16.40
2016,09,30,16,04,16.40
2016,09,30,16,05,16.40
2016,09,30,16,06,16.40
2016,09,30,16,07,16.40
2016,09,30,16,08,16.40
2016,09,30,16,09,16.40
2016,09,30,16,10,16.40
2016,09,30,16,11,16.40
2016,09,30,16,12,16.40
2016,09,30,16,13,16.40
2016,09,30,16,14,16.40
2016,09,30,16,15,16.30
2016,09,30,16,16,16.30
2016,09,30,16,17,16.40
2016,09,30,16,18,16.40
2016,09,30,16,19,16.30
2016,09,30,16,20,16.30
2016,09,30,16,21,16.30
2016,09,30,16,22,16.30
2016,09,30,16,23,16.30
2016,09,30,16,24,16.30
2016,09,30,16,25,16.20
2016,09,30,16,26,16.20
2016,09,30,16,27,16.20
2016,09,30,16,28,16.10
2016,09,30,16,29,16.10
2016,09,30,16,30,16.10
2016,09,30,16,31,16.00
2016,09,30,16,32,16.00
2016,09,30,16,33,15.90
2016,09,30,16,34,15.80
2016,09,30,16,35,15.80
2016,09,30,16,36,15.80
2016,09,30,16,37,15.80
2016,09,30,16,38,15.80
2016,09,30,16,39,15.80
2016,09,30,16,40,15.80
2016,09,30,16,41,15.70
2016,09,30,16,42,15.70
2016,09,30,16,43,15.70
2016,09,30,16,44,15.70
2016,09,30,16,45,15.70
2016,09,30,16,46,15.70
2016,09,30,16,47,15.70
2016,09,30,16,48,15.70
2016,09,30,16,49,15.70
2016,09,30,16,50,15.60
2016,09,30,16,51,15.60
2016,09,30,16,52,15.60
2016,09,30,16,53,15.60
2016,09,30,16,54,15.60
2016,09,30,16,55,15.60
2016,09,30,16,56,15.60
2016,09,30,16,57,15.60
2016,09,30,16,58,15.60
2016,09,30,16,59,15.50
2016,09,30,17,00,15.50
2016,09,30,17,01,15.50
2016,09,30,17,02,15.50
2016,09,30,17,03,15.50
2016,09,30,17,04,15.40
2016,09,30,17,05,15.40
2016,09,30,17,06,15.40
2016,09,30,17,07,15.40
2016,09,30,17,08,15.40
2016,09,30,17,09,15.30
2016,09,30,17,10,15.30
2016,09,30,17,11,15.30
2016,09,30,17,12,15.30
2016,09,30,17,13,15.30
2016,09,30,17,14,15.30
2016,09,30,17,15,15.30
2016,09,30,17,16,15.30
2016,09,30,17,17,15.30
2016,09,30,17,18,15.30
2016,09,30,17,19,15.20
2016,09,30,17,20,15.20
2016,09,30,17,21,15.20
2016,09,30,17,22,15.20
2016,09,30,17,23,15.20
2016,09,30,17,24,15.20
2016,09,30,17,25,15.20
2016,09,30,17,26,15.10
2016,09,30,17,27,15.10
2016,09,30,17,28,15.10
2016,09,30,17,29,15.10
2016,09,30,17,30,15.10
2016,09,30,17,31,15.10
2016,09,30,17,32,15.00
2016,09,30,17,33,15.00
2016,09,30,17,34,15.00
2016,09,30,17,35,15.00
2016,09,30,17,36,15.00
2016,09,30,17,37,15.00
2016,09,30,17,38,14.90
2016,09,30,17,39,14.90
2016,09,30,17,40,14.90
2016,09,30,17,41,14.90
2016,09,30,17,42,14.90
2016,09,30,17,43,14.80
2016,09,30,17,44,14.80
2016,09,30,17,45,14.80